Date,TemperatureHighF,TemperatureAvgF,TemperatureLowF,DewpointHighF,DewpointAvgF,DewpointLowF,HumidityHigh,HumidityAvg,HumidityLow,PressureMaxIn,PressureMinIn,WindSpeedMaxMPH,WindSpeedAvgMPH,GustSpeedMaxMPH,PrecipitationSumIn
2013-3-1,60.7,52.0,45.2,44.4,38.7,35.1,86,61,40,30.03,29.92,14,6,14,0.00
2013-3-2,55.7,44.3,32.3,37.3,31.7,27.0,92,64,35,30.06,29.96,26,7,26,0.00
2013-3-3,50.5,39.5,28.8,32.9,29.4,24.9,87,69,46,30.16,30.02,21,6,21,0.00
2013-3-4,67.0,45.1,25.6,36.6,28.9,22.9,93,60,26,30.24,30.11,12,3,12,0.00
2013-3-5,75.0,56.1,34.4,61.7,47.6,30.6,93,75,51,30.18,29.94,25,8,25,0.00
2013-3-6,66.5,53.2,39.4,62.7,36.3,27.8,90,56,28,30.17,29.93,31,12,31,0.00
2013-3-7,67.3,49.3,35.0,41.5,35.4,30.4,85,62,32,30.25,30.14,12,3,12,0.00
2013-3-8,75.6,52.9,32.1,46.7,36.2,29.8,96,61,21,30.25,30.12,15,3,15,0.00
2013-3-9,73.6,57.2,37.2,50.7,44.4,34.8,95,67,32,30.27,30.16,20,6,20,0.00
2013-3-10,79.8,64.8,50.6,57.5,52.9,46.4,93,68,42,30.20,30.06,23,9,23,0.00
2013-3-11,78.4,66.1,54.2,60.3,56.7,51.3,92,73,50,30.11,29.88,25,8,25,0.00
2013-3-12,70.2,63.2,48.1,63.7,56.4,44.4,95,80,47,30.05,29.82,21,6,21,0.28
2013-3-13,71.7,57.7,44.5,45.5,39.0,32.6,89,54,25,30.21,30.05,23,6,23,0.00
2013-3-14,64.6,51.5,38.6,39.6,30.6,27.9,70,47,26,30.32,30.19,17,6,17,0.00
2013-3-15,75.1,52.2,31.0,42.3,35.5,28.0,93,58,29,30.30,30.13,16,4,16,0.00
2013-3-16,78.7,58.4,38.1,58.1,45.6,35.6,96,67,38,30.18,30.04,20,5,20,0.00
2013-3-17,73.6,59.1,42.0,60.2,51.1,39.8,96,77,49,30.12,30.00,16,4,16,0.10
2013-3-18,77.8,66.7,59.4,67.8,62.6,58.0,96,87,67,30.04,29.87,16,5,16,0.03
2013-3-19,81.6,68.1,57.3,64.4,60.7,55.3,95,79,53,30.03,29.89,20,4,20,0.06
2013-3-20,75.2,62.7,51.9,59.7,55.1,49.1,94,78,53,30.00,29.84,16,4,16,0.17
2013-3-21,69.8,52.6,38.0,50.1,38.9,29.1,94,66,22,30.00,29.88,16,4,16,0.00
2013-3-22,70.0,55.1,39.7,49.0,42.5,34.1,94,65,44,30.04,29.92,18,6,18,0.00
2013-3-23,76.2,64.1,52.9,72.5,60.7,46.2,96,89,71,29.98,29.75,17,4,17,0.34
2013-3-24,82.9,73.0,64.0,72.9,68.6,61.6,96,87,68,29.78,29.58,29,11,29,0.11
2013-3-25,67.8,57.8,45.9,61.5,39.0,26.8,93,53,22,30.06,29.68,24,11,24,0.00
2013-3-26,57.7,47.6,36.7,31.5,28.6,25.2,78,49,31,30.27,30.06,26,8,26,0.00
2013-3-27,62.2,45.4,29.4,33.8,30.6,26.0,91,61,29,30.34,30.22,12,3,18,0.00
2013-3-28,69.8,50.0,29.8,41.2,33.4,27.5,94,60,27,30.32,30.20,14,4,14,0.00
2013-3-29,76.1,55.2,34.4,47.4,38.6,31.8,94,60,25,30.34,30.18,14,3,14,0.00
2013-3-30,77.4,58.8,37.9,53.1,42.9,35.4,95,62,28,30.27,30.12,22,4,22,0.00
2013-3-31,79.0,65.3,50.8,59.4,54.9,47.9,93,72,43,30.14,29.99,27,8,27,0.00